Theta_e
331 330 332 334 334 333 333 331 331 331 330 326 321 320 320 320 320 320 321 321 321 322 322 323 327 330 332 333 334 332 330 328
333 330 329 331 334 334 334 333 332 331 331 330 325 321 321 320 320 321 321 322 322 323 323 323 323 323 323 323 324 329 332 333
334 331 329 327 330 334 334 333 333 332 331 331 330 325 322 321 321 321 322 322 323 323 324 324 324 325 324 324 323 322 322 325
335 335 333 328 325 328 333 335 333 333 332 332 331 329 324 322 322 322 322 322 323 323 324 325 325 326 327 327 327 326 323 320
332 334 336 334 328 325 327 333 335 334 334 333 332 331 329 324 322 322 322 322 322 323 324 325 326 326 327 328 328 327 325 321
331 332 335 335 332 327 325 328 333 335 334 335 334 332 330 328 323 321 321 322 322 323 324 325 326 326 327 328 329 328 325 322
331 332 333 335 334 331 327 326 329 333 335 334 335 333 330 328 326 324 322 322 322 322 323 325 326 326 327 328 329 328 325 322
332 333 332 335 335 335 330 328 328 330 333 334 334 332 331 330 329 328 324 323 323 324 323 324 325 326 327 328 329 330 327 323
331 332 333 333 335 336 335 331 330 330 330 332 332 332 330 330 332 330 328 325 324 324 324 324 325 326 328 328 329 330 329 326
324 331 333 333 335 336 338 337 333 331 331 331 331 331 331 331 330 331 331 329 326 325 326 326 327 331 333 332 331 330 330 328
324 324 331 333 334 336 338 339 338 336 336 335 332 331 331 331 331 332 333 333 330 327 328 328 331 334 334 333 331 331 330 329
324 323 327 332 334 336 337 339 339 339 340 339 338 335 331 331 331 332 334 335 334 330 329 330 333 335 335 334 332 331 329 329
324 323 324 329 332 334 337 338 339 339 340 340 337 334 332 331 331 332 333 335 335 334 330 330 332 336 336 334 332 331 330 329
324 323 324 328 332 334 335 337 338 339 341 340 334 332 331 331 332 333 334 335 335 334 332 331 332 335 335 331 328 326 326 327
323 322 322 325 328 332 334 338 338 339 340 339 333 332 332 334 337 338 338 338 338 336 333 332 332 334 334 332 324 325 326 325
323 322 322 324 327 331 334 335 336 338 340 340 335 335 336 336 336 336 336 336 336 336 336 336 335 336 333 331 329 327 324 322
324 325 326 328 331 334 334 336 338 340 340 340 338 337 335 335 335 335 336 336 335 337 337 336 334 333 332 331 329 327 325 324
329 330 331 333 334 336 337 339 340 340 340 338 340 339 338 338 338 336 334 333 335 334 333 334 332 333 332 330 330 329 327 324
333 334 335 336 337 337 338 338 339 338 338 338 339 338 337 336 336 336 334 330 328 332 331 331 328 331 329 330 329 327 328 326
337 337 336 335 336 337 338 338 336 335 334 334 335 336 334 333 333 332 331 331 330 327 328 329 328 327 328 328 327 325 323 323
Wind_Speed
23 26 27 27 26 24 23 21 19 18 16 15 15 15 16 16 16 15 14 13 13 13 12 12 11 11 10 8 7 6 5 3
22 25 26 28 28 27 25 24 22 20 18 17 16 16 16 16 16 15 14 13 12 12 12 11 10 10 9 9 8 7 7 6
23 25 27 28 30 30 28 26 24 22 20 19 18 17 17 16 16 15 15 14 13 13 13 11 11 10 8 7 7 7 7 7
21 21 25 27 30 30 31 29 28 27 24 22 20 18 17 16 16 15 15 15 14 13 13 12 11 10 9 8 7 6 6 7
20 19 21 25 29 31 32 33 32 30 28 25 23 21 20 19 18 18 17 16 16 15 14 13 12 11 11 10 8 7 6 6
20 21 21 22 27 30 31 32 34 34 32 28 26 26 24 22 21 20 19 18 16 15 15 15 13 12 12 12 10 9 7 5
23 23 24 23 25 28 31 33 34 35 33 32 30 28 25 24 24 23 21 18 17 16 16 16 14 14 14 13 12 11 9 8
26 26 26 26 25 26 30 32 33 33 33 32 31 29 27 27 25 24 22 18 17 16 16 16 17 17 16 15 15 14 12 11
29 29 29 29 28 27 27 30 30 31 31 31 32 30 28 27 27 25 21 19 18 18 18 18 19 19 17 17 16 16 14 13
25 32 33 32 32 30 28 28 28 28 29 31 32 31 30 29 28 27 23 21 20 21 20 20 20 19 18 17 17 17 17 15
23 31 36 35 33 33 31 29 28 26 25 27 30 31 30 29 28 27 25 23 23 22 23 21 21 21 20 20 19 19 19 18
24 28 35 36 35 33 33 31 28 27 24 21 21 24 28 28 28 27 26 25 25 25 25 23 25 24 24 24 23 22 22 22
30 28 32 36 37 35 35 33 30 29 24 20 19 19 21 23 24 25 26 27 27 27 27 27 29 29 27 28 27 28 27 26
30 32 31 35 36 34 32 30 29 28 24 18 17 18 19 21 21 23 23 24 27 28 29 30 31 33 34 29 21 26 26 28
23 30 31 29 29 30 28 25 25 26 24 18 18 18 17 17 18 20 21 22 25 27 28 30 33 36 37 30 11 14 28 29
16 20 21 21 21 22 22 21 21 21 18 17 17 14 13 12 16 18 19 21 23 25 26 28 32 34 33 37 29 18 15 13
12 13 14 15 14 14 14 14 15 13 13 13 16 16 16 19 18 19 19 20 22 23 25 25 24 31 33 31 37 31 23 18
10 12 12 11 11 10 10 9 9 9 11 12 13 15 16 14 16 16 16 18 21 20 20 21 22 27 26 28 32 36 38 31
12 13 13 12 11 11 10 10 9 9 10 11 13 15 15 14 16 16 18 17 19 20 18 21 23 23 24 25 30 36 36 34
15 15 14 13 11 10 10 10 10 10 11 12 13 14 16 17 19 20 21 22 21 21 20 21 21 21 24 25 26 30 31 32
Wind_Direction
204 205 204 205 205 204 204 203 201 195 190 187 183 179 175 172 168 167 166 166 161 159 162 168 173 177 180 188 193 193 186 184
209 210 209 208 207 208 208 208 208 204 199 194 190 188 185 181 178 176 175 175 177 174 179 182 187 191 191 197 208 219 221 213
210 215 214 213 209 209 210 211 211 209 206 202 199 197 193 191 189 186 184 186 191 190 196 197 203 209 215 221 221 226 238 234
208 214 219 218 216 211 211 211 211 212 210 210 208 207 205 202 200 197 196 195 201 208 207 210 219 229 234 240 243 241 235 239
214 215 219 220 220 214 213 212 214 214 214 214 214 213 212 209 211 210 207 206 209 214 224 226 227 238 254 257 261 259 251 236
223 222 223 222 222 219 218 217 217 217 216 216 217 217 216 217 218 220 220 216 216 219 225 233 238 242 251 257 259 259 257 238
230 227 228 225 223 222 220 221 222 220 219 220 221 222 223 223 224 223 222 224 223 226 231 238 243 248 252 253 255 257 253 235
238 233 234 231 229 227 225 224 224 225 225 225 227 227 227 230 231 232 235 229 236 235 238 241 247 250 254 257 257 255 247 234
243 239 238 236 233 231 230 230 229 227 230 230 231 231 232 235 237 239 239 240 241 243 242 243 248 254 257 258 257 255 245 233
244 236 237 239 236 234 231 233 232 231 233 235 235 233 235 237 241 243 242 243 243 247 247 248 249 252 255 255 257 252 247 241
250 228 231 236 239 237 233 234 233 233 237 238 242 239 238 241 243 247 246 246 247 250 252 252 252 252 252 252 250 246 242 242
252 238 227 233 238 239 237 233 233 235 239 243 244 241 240 242 247 250 250 248 249 250 253 253 252 250 251 252 250 245 241 247
246 234 226 229 234 235 235 231 231 232 235 240 245 240 239 243 249 252 253 254 256 254 253 252 252 249 248 245 246 238 237 241
233 227 225 227 231 234 234 233 231 233 234 236 235 234 236 242 249 254 255 257 259 259 258 257 256 254 249 237 231 235 231 234
217 220 225 231 232 229 231 230 231 230 231 230 227 231 238 246 257 262 263 259 261 263 261 261 260 260 255 238 218 211 224 226
202 215 218 220 220 222 227 229 226 223 228 231 230 229 235 249 254 257 262 264 267 272 272 271 261 259 255 236 235 238 203 214
163 174 184 191 198 204 211 216 219 221 226 231 226 229 237 239 249 262 263 267 269 276 273 268 280 266 262 257 238 236 232 223
148 150 154 158 168 178 188 200 213 214 223 230 232 237 243 255 252 258 257 269 271 275 280 272 277 273 262 268 261 249 239 234
150 147 153 157 165 173 181 191 201 205 219 237 252 257 265 262 256 259 264 272 275 273 268 272 279 269 273 264 268 251 248 245
155 153 156 158 168 181 190 194 204 213 221 235 255 270 275 278 279 276 271 266 272 260 263 270 277 269 264 259 265 261 248 250